Location: Famechon
(49.7599°N, 2.0615°E)
Time: 19:06:03
(UTC+00:00)

CZ-4B DEB - Pass Details

Date: 03 February 2023
Orbit: 839 x 859 km, 99.1° (Epoch: 25 March)

Event Time Altitude Azimuth Distance (km) Brightness Sun altitude
Rises 17:46:53 0° 153° (SSE) 3,382 7.2 -9.5°
Reaches altitude 10° 17:49:14 10° 151° (SSE) 2,452 6.5 -9.9°
Maximum altitude 17:54:37 67° 70° (ENE) 916 4.2 -10.7°
Drops below altitude 10° 18:00:04 10° 349° (N) 2,477 6.6 -11.6°
Sets 18:02:27 0° 347° (NNW) 3,420 7.4 -12.0°
